GFSNE_925_thetae_108.txt.gz
Theta_e
316 316 316 316 317 317 319 319 317 317 316 317 317 318 318 318 318 318 318 318 317 317 317 317 316 313 311 310 310 310 310 310 309 309 309 309 308 309
318 317 318 318 319 319 319 319 318 318 317 318 318 318 318 318 318 318 316 316 315 316 314 314 311 309 307 305 305 304 302 302 302 303 303 303 302 303
317 317 317 317 317 318 318 317 318 318 318 318 319 318 318 318 317 316 311 308 305 302 302 302 300 299 298 297 297 296 297 296 297 296 296 296 296 295
318 317 317 317 318 318 318 318 317 317 318 318 319 318 316 310 307 305 301 297 297 296 295 292 291 290 290 290 289 289 288 287 288 289 289 290 290 289
320 319 318 317 318 318 318 317 317 318 318 318 318 312 303 301 298 297 294 293 293 290 289 287 286 286 286 285 284 283 282 284 283 283 283 282 283 283
318 318 318 318 318 318 318 318 317 316 315 314 309 302 297 294 294 291 290 288 288 287 284 284 283 283 283 281 280 279 281 283 282 281 280 280 279 280
317 317 317 317 317 316 316 315 312 311 308 305 297 292 288 286 285 284 285 284 286 284 283 282 282 281 280 278 277 279 280 279 279 278 278 278 279 279
316 313 310 309 307 307 307 307 305 304 301 294 287 284 283 282 282 282 282 282 283 281 279 279 279 278 275 275 276 279 278 277 277 276 277 277 276 276
313 309 304 298 297 297 295 296 295 294 293 289 283 282 280 281 281 280 279 278 279 277 276 278 276 275 275 274 276 277 276 276 275 275 275 275 275 276
308 304 301 294 292 294 293 289 287 286 286 285 283 279 280 280 279 278 276 276 278 276 274 275 274 273 274 274 275 275 274 274 273 274 274 274 274 275
295 293 292 289 286 287 287 283 280 279 278 279 277 277 278 276 274 274 274 275 275 275 272 272 273 272 272 273 273 274 272 272 272 273 273 273 274 274
288 287 287 287 285 286 284 281 278 277 277 277 276 275 273 272 272 272 272 273 273 273 271 271 271 270 271 271 272 271 271 271 271 271 272 272 273 273
284 284 283 283 283 284 283 281 278 277 276 276 273 272 272 271 271 271 270 270 271 271 270 270 270 269 270 270 270 270 270 270 270 270 270 271 272 272
282 281 281 281 280 279 278 277 278 278 274 272 272 271 271 270 270 270 270 270 270 269 269 269 269 269 269 269 269 270 269 269 269 270 270 270 270 271
281 279 279 278 277 276 276 277 274 273 272 271 270 269 269 269 269 269 269 269 269 269 269 268 268 268 268 268 268 269 269 269 269 270 269 270 269 269
277 277 276 276 276 274 272 272 271 271 270 269 269 268 268 269 268 268 269 269 269 269 269 268 267 267 267 268 268 268 269 269 269 269 269 269 269 269
276 276 274 273 272 271 270 270 270 269 269 268 268 268 268 268 268 268 268 268 267 267 268 269 268 267 267 267 268 268 268 268 268 268 268 268 269 270
276 274 272 271 271 270 269 269 268 268 268 268 267 267 267 267 267 267 267 267 266 266 266 266 266 266 267 268 268 269 268 268 268 268 268 269 269 272
273 271 271 270 270 269 269 268 267 267 267 267 267 267 267 267 266 266 266 266 265 265 265 265 265 265 266 266 266 267 267 267 268 268 269 269 270 273
271 270 270 269 269 268 268 267 267 266 266 266 266 266 266 266 266 266 265 264 264 264 265 265 265 265 264 265 265 267 267 267 268 269 270 271 272 276
270 269 269 269 268 268 267 267 267 266 266 266 265 266 266 266 265 265 264 264 264 263 264 264 264 264 264 264 265 266 268 269 269 271 272 273 274 275
269 269 268 268 267 267 267 266 266 265 265 265 265 265 265 265 264 264 264 264 264 262 263 264 264 264 264 265 265 265 267 273 277 277 277 277 275 275
269 268 267 267 266 266 266 265 265 265 264 265 265 265 264 264 264 264 264 264 263 263 262 263 263 263 263 264 264 266 267 270 270 274 280 280 280 279

GFSNE_925_thetae_111.txt.gz
Theta_e
317 316 316 317 317 317 318 319 320 320 319 317 317 317 317 318 318 317 317 317 317 316 316 313 313 314 313 311 308 307 305 304 304 303 302 300 299 299
316 316 316 316 316 318 319 319 319 318 319 318 318 318 318 317 316 316 314 311 308 306 305 305 305 303 301 301 300 298 297 297 296 296 295 294 293 293
316 316 316 317 317 317 318 318 318 317 317 318 318 318 316 316 313 311 305 304 299 296 295 294 293 294 294 294 292 291 289 288 288 287 287 287 287 288
317 317 317 317 317 317 317 317 318 318 318 317 317 317 311 308 307 301 297 296 295 290 290 288 289 288 287 286 284 283 283 284 283 283 283 282 282 282
318 318 318 318 317 317 317 317 317 318 318 317 317 312 302 299 297 295 293 291 289 287 286 285 285 285 284 284 282 280 284 283 281 281 280 279 280 280
317 318 318 317 317 317 317 317 318 318 317 316 314 305 297 294 294 291 289 289 286 285 284 284 284 282 280 279 278 281 280 280 279 278 278 278 278 278
318 318 317 318 317 317 317 317 317 315 313 310 303 296 290 288 288 286 285 285 284 283 281 281 280 279 277 277 277 280 279 278 277 277 277 277 277 277
318 316 315 316 315 315 315 314 312 310 308 304 294 288 284 283 284 284 284 284 284 281 277 280 278 277 276 276 276 279 277 276 276 276 276 276 276 276
316 314 310 307 307 305 302 303 302 302 301 298 289 284 282 283 283 281 279 280 280 277 277 279 276 276 275 275 275 276 276 275 275 275 275 275 275 275
313 311 307 301 298 299 297 295 292 290 290 288 286 282 281 281 281 279 277 279 277 275 274 277 276 276 275 275 275 275 274 274 274 274 274 274 274 275
304 302 299 295 290 291 292 285 281 279 278 278 280 280 278 276 276 276 277 278 277 276 273 275 275 274 274 275 275 274 274 273 273 273 273 274 274 274
294 291 292 290 287 287 287 282 278 276 277 277 275 275 274 273 274 274 274 275 276 276 273 274 273 273 275 274 274 274 273 273 273 273 273 273 273 274
287 286 285 284 282 282 282 281 279 278 276 275 274 273 273 272 272 272 272 273 274 273 271 272 272 272 273 273 273 273 273 273 273 273 273 273 273 273
284 283 281 281 281 282 280 277 277 277 275 273 273 272 272 272 271 271 271 271 271 271 271 271 271 272 272 273 274 273 273 273 273 273 273 273 273 273
281 281 279 278 277 277 277 278 277 273 273 273 272 272 271 271 270 270 270 271 270 270 270 270 270 271 271 272 273 273 272 273 273 273 273 273 273 273
278 276 276 276 275 274 275 273 272 272 272 271 271 270 270 270 270 270 271 270 271 271 270 269 269 270 270 271 271 272 273 273 273 273 272 273 274 275
276 275 274 273 272 272 272 271 271 271 271 270 270 270 270 270 270 269 269 270 271 271 271 271 270 270 270 270 271 273 273 273 273 272 272 274 276 277
277 274 273 272 272 271 271 270 270 270 269 269 269 269 269 269 270 269 269 270 270 270 270 270 270 271 272 273 270 272 272 272 272 272 273 274 276 278
274 273 272 272 272 271 270 270 269 268 268 268 268 268 269 268 270 269 269 269 269 269 270 269 270 270 271 273 272 270 270 270 271 273 274 275 276 278
273 272 272 271 270 270 269 269 268 267 267 267 267 267 267 268 268 268 268 267 268 269 270 270 269 268 268 269 269 270 269 270 271 273 275 277 279 279
271 271 271 270 270 269 268 267 267 266 267 266 266 266 267 267 266 266 266 266 266 268 269 269 267 266 267 268 270 272 272 271 271 273 275 278 281 280
270 270 269 268 268 267 267 267 266 266 266 266 266 266 265 265 266 265 265 266 267 267 267 267 267 267 268 268 269 270 272 273 276 278 279 278 280 281
269 268 268 267 267 267 266 266 266 266 265 265 265 265 265 265 264 265 265 265 265 266 266 267 267 267 267 268 268 270 272 273 274 276 279 280 280 280

GFSNE_925_thetae_114.txt.gz
Theta_e
322 322 322 322 323 323 323 322 321 323 322 319 320 317 317 317 317 316 316 314 316 316 315 313 311 310 309 307 305 303 301 300 299 297 296 295 294 294
321 321 321 320 319 320 317 321 320 320 322 319 318 317 317 316 314 314 312 310 308 307 306 304 303 300 298 298 297 295 294 294 292 291 290 289 288 288
318 318 319 317 317 317 316 317 318 319 320 320 319 317 315 314 310 307 307 304 299 296 296 296 294 293 292 289 288 286 285 285 285 284 284 283 284 284
318 318 318 318 319 317 317 317 318 319 319 319 317 317 313 309 306 304 297 297 294 289 289 288 287 287 288 286 282 284 284 283 282 281 280 280 281 281
317 314 317 319 319 319 319 317 318 317 317 317 317 313 307 301 297 295 293 291 289 287 287 288 286 284 283 281 280 282 281 280 280 278 278 278 279 279
316 316 318 318 318 317 317 317 316 317 317 317 316 310 303 297 295 292 288 287 286 284 284 284 284 282 279 279 279 281 280 278 277 278 278 278 278 278
317 318 318 317 318 318 317 317 317 316 316 315 310 299 295 291 291 289 287 285 283 283 282 282 282 281 279 279 279 280 277 276 277 277 277 277 277 277
317 317 317 317 317 317 317 317 316 315 314 311 302 296 289 289 288 287 286 285 284 281 281 281 279 280 280 279 277 276 276 277 277 276 276 276 276 276
317 317 314 312 313 313 313 313 311 310 308 308 303 293 286 285 285 283 283 282 281 277 278 282 279 279 278 278 277 276 276 276 276 276 276 276 276 276
315 314 312 308 307 308 304 301 297 296 295 296 293 287 285 283 283 281 281 280 278 277 276 280 279 278 278 278 277 276 276 276 275 275 276 276 276 276
312 310 309 307 304 301 300 291 283 280 280 281 281 282 282 281 281 280 281 282 280 278 276 278 278 277 278 278 278 277 276 276 276 276 276 276 276 276
300 298 299 299 291 290 294 286 279 277 277 277 277 278 278 277 277 278 279 280 280 280 275 278 277 276 278 278 277 277 277 277 277 276 276 276 276 276
291 288 286 286 284 283 284 281 278 277 277 276 275 275 274 275 275 275 276 278 278 276 273 275 276 277 277 277 277 278 277 278 277 278 277 277 276 276
285 283 282 281 280 282 281 277 277 277 275 275 275 275 275 274 274 274 274 274 274 274 273 274 275 275 276 277 278 277 278 278 278 278 278 278 278 278
282 282 280 279 278 277 276 276 276 276 275 275 275 274 274 273 273 273 273 273 273 272 272 273 273 274 275 276 277 277 277 278 278 278 278 278 279 280
278 277 276 276 276 275 275 275 275 276 276 275 274 273 273 274 273 274 274 274 276 275 273 273 273 274 275 275 275 276 278 278 278 278 277 278 280 281
277 276 275 275 274 274 273 273 273 273 273 273 273 273 273 273 273 273 274 275 276 275 276 275 274 274 275 275 276 277 277 278 277 277 277 279 280 281
276 275 275 274 274 274 273 273 273 272 273 273 273 273 274 274 274 274 274 275 276 275 275 274 275 275 276 277 275 275 276 276 276 277 278 279 280 281
277 275 275 274 274 273 274 273 272 271 272 273 273 273 274 273 275 274 274 274 275 275 275 274 274 274 276 278 276 273 274 274 276 277 277 279 280 282
277 276 275 274 274 274 273 272 272 272 271 271 272 272 272 273 273 273 273 273 273 274 274 274 274 272 272 273 273 274 274 275 275 276 277 278 280 283
275 275 274 274 273 272 272 272 271 271 271 271 271 271 271 272 272 272 272 270 271 273 274 273 272 270 271 272 275 276 276 275 275 275 276 278 281 282
273 273 272 272 271 271 271 270 270 270 270 270 270 270 270 271 271 271 271 271 272 272 272 272 272 272 273 273 274 274 276 277 277 278 278 279 279 282
272 271 271 270 270 270 271 271 271 270 270 269 270 269 269 270 269 270 270 270 270 270 271 271 272 273 273 273 273 275 276 277 278 279 281 281 280 280

GFSNE_925_thetae_117.txt.gz
Theta_e
323 323 323 323 322 321 321 322 322 325 325 322 322 322 320 318 317 317 317 316 313 312 312 311 309 309 309 307 303 298 297 296 294 292 291 290 290 290
322 323 322 323 323 323 325 323 323 322 324 321 321 317 317 316 316 315 313 315 307 305 306 306 305 302 299 296 294 292 290 289 289 287 285 285 286 286
323 323 323 322 323 323 323 321 320 320 321 320 318 316 313 314 313 310 310 305 301 298 297 297 296 293 291 290 288 287 285 283 282 282 281 282 283 284
323 323 323 323 323 321 321 318 317 316 318 319 318 314 313 308 308 304 302 298 296 292 293 291 289 289 288 285 283 282 282 281 280 278 280 280 281 281
322 322 322 322 321 321 318 318 317 315 314 316 317 314 307 302 299 297 296 291 291 289 287 289 287 286 283 281 282 282 281 278 278 278 278 279 279 279
321 321 321 320 319 320 319 320 319 319 318 318 316 310 305 297 299 293 290 288 287 286 287 287 286 284 283 281 280 280 279 279 279 278 278 278 278 278
319 319 318 316 317 319 320 320 319 317 316 316 315 308 302 294 294 291 288 287 285 285 285 286 286 282 280 280 279 279 277 277 278 278 278 277 278 278
317 317 316 316 317 318 318 317 317 317 316 315 311 306 300 296 293 291 287 283 283 283 284 284 280 280 280 280 279 277 277 277 278 277 277 277 277 277
317 317 316 316 317 317 317 317 316 316 315 315 310 304 296 295 293 289 287 286 282 280 281 283 280 280 280 280 279 277 277 277 277 277 277 277 277 277
317 317 316 315 313 314 311 308 303 301 301 303 301 296 293 290 289 287 286 284 279 278 278 282 280 280 280 281 279 278 277 277 277 277 277 277 277 278
315 314 314 312 308 306 305 297 289 284 283 287 286 285 285 285 285 285 282 281 281 279 277 280 280 279 279 280 279 278 278 278 278 278 278 278 278 278
304 303 302 303 296 296 298 291 282 279 280 280 281 282 282 282 282 283 283 283 281 280 276 280 278 278 280 280 279 279 279 279 279 279 279 279 279 279
293 291 290 291 288 288 290 288 283 280 279 279 279 277 276 277 277 278 279 280 281 277 275 278 278 278 278 279 279 279 279 280 280 280 280 280 280 280
287 285 283 282 281 284 284 278 277 279 277 277 276 276 276 275 275 275 275 276 276 276 275 276 277 277 277 279 280 279 279 280 280 280 281 280 280 281
284 282 280 279 278 278 277 276 277 277 277 277 276 276 275 275 275 275 275 274 274 274 274 275 275 275 276 278 278 279 279 280 280 280 280 280 281 282
279 277 277 277 277 277 277 277 277 277 277 276 276 275 275 275 275 276 276 276 277 276 275 275 275 276 277 278 278 278 279 280 280 280 279 280 282 282
278 277 277 276 275 275 275 276 276 275 275 275 275 275 275 275 275 276 277 277 278 278 278 277 276 277 277 278 278 279 279 279 279 278 279 280 282 282
277 276 276 276 276 276 276 275 275 275 276 276 276 276 276 276 276 276 277 278 278 277 277 277 277 277 278 279 278 277 277 277 277 277 279 280 281 282
279 278 277 277 276 276 275 275 275 275 275 275 276 276 276 276 277 277 277 277 277 277 277 277 277 276 277 278 277 276 276 276 277 278 278 279 280 281
279 278 278 277 277 276 275 275 275 275 275 275 276 276 276 276 276 276 275 275 276 276 277 277 276 274 274 274 274 275 276 276 277 277 278 278 280 282
279 278 277 277 276 275 275 275 274 274 274 274 274 274 275 275 275 275 274 273 274 276 276 275 275 273 274 275 276 277 277 277 277 277 278 278 280 281
277 276 276 275 275 275 274 273 273 273 273 273 273 273 274 274 273 274 273 274 274 274 274 274 274 275 275 275 276 276 277 278 278 279 280 280 280 281
275 274 275 274 273 273 273 273 273 273 272 272 272 272 272 273 272 272 273 273 273 272 273 273 274 275 275 276 275 276 277 277 278 279 280 281 281 281

GFSNE_925_thetae_120.txt.gz
Theta_e
324 325 324 325 323 323 322 322 321 321 321 322 322 320 320 320 319 318 316 315 315 316 316 316 314 309 308 305 303 300 299 299 297 294 289 288 288 289
324 324 324 324 323 323 321 322 321 322 321 322 320 318 318 318 315 316 313 311 308 309 311 312 308 306 303 300 297 294 292 291 287 285 285 286 286 286
324 323 323 322 321 323 322 323 322 322 320 318 315 313 311 314 314 313 306 306 302 303 302 302 301 298 296 292 292 290 286 285 284 282 281 282 283 284
323 323 322 321 321 322 322 322 321 321 320 318 312 311 309 308 309 309 306 299 303 296 296 294 293 291 288 286 285 286 284 281 279 279 280 279 280 281
323 322 321 320 321 322 321 320 319 319 319 318 314 311 305 302 302 300 298 298 296 292 291 290 289 286 284 285 285 283 280 278 278 278 278 278 278 279
322 322 323 322 322 322 321 319 318 317 317 317 316 312 308 301 302 298 293 292 289 287 288 288 288 286 285 282 281 280 278 278 278 278 278 278 278 279
323 322 323 322 322 321 321 319 319 318 318 316 312 305 302 297 297 296 291 289 287 286 286 286 287 285 281 280 280 279 278 277 278 278 278 278 278 278
321 320 320 321 321 321 319 318 319 318 318 317 313 309 306 306 300 297 290 284 284 285 285 285 284 281 280 280 280 278 277 278 278 278 278 278 278 278
320 319 319 317 318 318 317 314 316 319 317 317 316 315 313 310 303 291 289 287 283 283 284 283 281 281 281 280 280 279 278 278 278 278 279 278 278 279
317 317 316 316 316 316 316 315 312 311 311 312 312 311 307 302 296 293 289 286 281 280 282 282 281 280 280 281 280 279 279 278 278 279 279 279 279 279
316 315 315 315 314 314 313 307 297 292 290 294 295 295 293 291 292 290 285 283 280 278 279 281 280 279 279 280 280 279 279 279 279 279 279 280 280 280
306 305 304 305 299 299 302 295 285 281 283 283 282 283 284 284 285 286 284 283 280 279 278 280 279 279 281 280 279 279 279 280 280 280 280 281 280 281
296 293 291 294 293 293 295 291 285 282 280 280 280 280 282 283 283 282 282 283 280 276 277 279 278 278 278 279 279 279 279 280 280 280 281 281 281 281
288 286 284 286 288 289 286 281 281 281 280 278 278 277 277 277 278 279 278 278 277 277 278 279 277 277 277 278 279 279 279 280 280 280 280 280 281 282
284 282 281 280 279 279 278 279 281 280 279 278 276 276 275 276 275 275 275 275 275 275 275 276 276 276 277 278 278 278 279 280 280 280 279 279 281 281
280 280 279 279 279 278 279 279 278 278 277 276 276 276 276 276 276 276 277 277 277 277 277 276 276 277 277 277 277 278 279 279 279 278 278 279 280 281
278 277 277 277 277 277 277 277 277 277 276 276 276 276 276 276 276 277 278 278 278 278 277 277 277 277 278 278 278 278 278 278 277 277 277 278 279 280
277 277 277 277 276 276 276 276 276 276 276 276 276 276 276 276 277 277 278 278 277 277 277 277 277 276 278 278 278 277 276 276 276 277 277 278 279 280
278 278 277 277 276 276 276 276 276 276 276 276 277 277 277 277 277 277 277 278 277 277 277 277 276 274 275 273 276 276 276 276 276 277 277 277 278 279
278 278 277 277 276 276 275 276 276 276 277 276 276 277 276 276 276 275 275 276 276 276 277 276 275 274 273 274 274 276 277 277 277 277 277 278 278 280
279 278 277 276 276 276 276 275 275 275 275 275 275 276 276 275 275 275 275 275 275 275 275 275 274 275 275 275 276 276 276 277 278 278 278 278 278 280
277 277 276 276 276 275 274 274 274 274 274 274 274 274 274 274 274 274 274 274 274 273 274 274 274 275 275 276 276 275 276 276 277 278 279 279 280 280
275 275 275 274 274 273 274 274 273 273 273 273 273 273 273 273 273 273 273 273 273 273 272 272 273 274 274 275 275 276 275 276 277 277 277 278 280 281

GFSNE_925_thetae_123.txt.gz
Theta_e
324 323 324 323 323 322 321 320 319 320 319 320 319 319 320 320 319 319 319 319 318 317 315 315 313 312 311 309 307 305 303 299 297 295 291 290 290 290
325 324 324 323 323 323 322 321 320 320 320 321 317 315 317 316 316 315 316 315 314 315 313 312 311 308 305 303 301 299 295 292 290 288 288 287 287 287
325 324 324 324 324 323 323 322 321 320 320 315 314 312 311 313 310 309 308 309 308 306 305 306 304 305 301 298 295 293 290 288 287 284 282 282 284 284
325 325 324 323 323 323 323 321 320 320 320 314 307 307 308 309 309 307 303 304 302 299 300 298 299 296 294 292 290 288 286 281 280 280 280 279 280 282
324 324 324 323 323 322 322 322 321 321 319 314 310 307 301 302 302 302 299 298 296 292 291 292 291 288 286 285 285 282 280 279 279 279 279 279 279 280
323 324 323 323 321 320 322 322 320 320 319 315 310 306 302 298 301 299 294 293 291 290 289 289 286 284 284 284 281 280 278 278 278 278 278 279 279 279
323 323 322 322 321 319 321 321 319 319 317 313 308 306 302 297 298 296 292 290 288 287 287 287 286 285 284 283 281 279 278 278 278 278 279 279 279 279
321 322 322 321 320 319 319 320 320 317 316 314 310 307 307 305 301 298 292 286 286 286 286 285 285 283 281 281 281 278 278 278 278 279 279 279 279 279
320 319 321 321 321 322 321 320 319 318 318 317 314 312 311 310 305 297 295 290 285 285 286 283 282 281 281 281 280 278 278 278 279 279 279 279 280 280
319 319 317 318 320 319 319 317 315 313 313 314 313 312 313 309 306 303 293 289 285 283 284 282 280 281 281 281 280 279 279 279 279 280 280 280 280 280
315 315 317 317 317 318 315 308 301 296 294 301 306 307 302 298 297 297 288 285 280 280 281 281 280 280 280 281 279 279 279 279 280 280 280 281 280 281
311 312 311 313 313 313 313 310 298 290 292 291 291 291 290 288 288 290 287 284 280 279 280 280 279 280 280 280 279 279 279 280 280 280 281 281 281 281
302 300 298 302 302 301 303 298 295 289 287 287 285 285 285 285 285 286 286 287 284 278 280 279 279 279 280 279 279 279 279 280 280 280 280 280 281 281
293 290 288 291 293 295 294 288 287 287 285 283 282 281 281 281 282 283 284 281 281 282 280 278 278 278 278 279 279 279 279 280 280 280 280 280 280 281
288 285 284 286 286 284 283 284 284 283 281 279 277 277 277 277 277 277 276 277 277 277 277 277 277 277 278 278 278 278 279 279 279 279 279 279 280 281
281 281 281 281 280 279 279 280 280 279 278 276 276 276 276 276 276 276 276 276 276 276 276 277 277 277 277 278 278 278 278 279 278 278 277 278 279 280
281 279 278 278 278 277 277 277 278 278 277 277 277 276 276 277 278 278 278 278 277 277 277 277 277 277 278 278 278 277 277 277 277 276 277 278 279 279
278 278 277 277 277 277 277 277 277 277 277 277 276 276 277 277 278 278 277 277 277 277 277 277 276 278 278 277 277 277 277 277 277 277 277 277 278 279
278 277 277 277 277 277 277 276 276 276 276 276 276 276 277 277 278 277 277 277 277 277 276 276 275 275 274 269 275 276 276 277 276 277 277 277 278 279
277 277 276 276 276 276 276 276 276 277 277 277 277 277 277 277 277 277 277 276 276 276 275 275 274 275 274 274 275 276 276 276 276 277 277 278 279 279
276 276 275 275 276 276 276 276 276 276 276 276 276 276 276 276 274 275 275 275 275 275 274 274 274 275 275 275 275 276 275 276 276 276 277 278 279 279
276 276 275 276 276 275 276 276 275 275 276 275 275 275 275 275 275 274 274 274 274 273 273 273 274 274 274 275 275 275 275 275 277 277 277 276 277 278
275 275 275 275 275 275 274 274 274 274 274 274 274 273 273 273 273 273 273 273 272 272 272 272 272 273 273 274 274 273 274 275 274 275 275 276 277 278